Location: Assche-ter-Heiden
(50.9174°N, 4.1574°E)
Time: 06:36:58
(UTC+00:00)

METEOR-M - Pass Details

Date: 20 January 2020
Orbit: 816 x 820 km, 98.4° (Epoch: 23 February)

Event Time Altitude Azimuth Distance (km) Brightness Sun altitude
Rises 06:00:35 0° 10° (N) 3,365 7.3 -14.6°
Reaches altitude 10° 06:03:02 10° 4° (N) 2,428 6.5 -14.2°
Maximum altitude 06:08:04 43° 295° (WNW) 1,143 4.4 -13.4°
Drops below altitude 10° 06:13:04 10° 225° (SW) 2,410 6.3 -12.7°
Sets 06:15:30 0° 219° (SW) 3,338 7.1 -12.3°
